Regional Weather Roundup
Issued by NWS Grand Forks, ND

Home | Current Version | Previous Version | Graphics & Text | Print | Product List | Glossary On
Versions: 1 2 3 4 5 6 7 8 9 10 11 12 13 14 15 16 17 18 19 20 21 22 23 24 25 26 27 28 29 30 31 32 33 34 35 36 37 38 39 40 41 42 43 44 45 46 47 48 49 50
000
ASUS43 KFGF 291110
RWRFGF
PRAIRIE TO PINES  WEATHER ROUNDUP
NATIONAL WEATHER SERVICE EASTERN NORTH DAKOTA/GRAND FORKS ND
600 AM CDT MON AUG 29 2016

 **SATELLITE DATA USED TO AUGMENT SKY COVER AT AUTOMATED STATIONS**
 *****  WEATHER ACROSS EASTERN NORTH DAKOTA  *****

CITY           SKY/WX    TMP DP  RH WIND       PRES   REMARKS
GRAND FORKS    CLOUDY    67  63  87 N8        30.06S
GRAND FRKS AFB CLOUDY    66  64  94 N9        30.06R
GRAND FRKS NWS   N/A     64 N/A N/A N7          N/A
DEVILS LAKE    CLEAR     60  58  92 NW10      30.13R
FARGO          CLEAR     71  67  87 SE6       30.02R
WAHPETON ARPT  SUNNY     72  68  88 SE9       30.05R
$$

 ***** WEATHER ACROSS CENTRAL AND WESTERN NORTH DAKOTA  *****

CITY           SKY/WX    TMP DP  RH WIND       PRES   REMARKS
BISMARCK       CLEAR     65  54  67 N7        30.15R
MINOT          CLEAR     56  49  77 NW9       30.20R
JAMESTOWN      CLOUDY    68  68 100 N14       30.06R FOG
MINOT AFB      CLEAR     52  48  85 W6        30.20R
GARRISON         N/A     59  51  75 N8G18     30.19R
WILLISTON      PTCLDY    53  44  71 N7        30.26R
DICKINSON      CLOUDY    61  48  62 N16       30.20R
HETTINGER      CLOUDY    64  51  62 NE8       30.21R
$$

 *****  OTHER AIRPORT OBSERVATIONS IN OUR AREA  *****

CITY           SKY/WX    TMP DP  RH WIND       PRES   REMARKS
WALHALLA       NOT AVBL
GRAFTON AIRPOR PTSUNNY   66  63  88 NW3       30.09R
VALLEY CITY AR FAIR      63  63 100 NW6       30.06S
CANDO          NOT AVBL
CAVALIER APRT  FAIR      64  61  88 NW12      30.08R
GWINNER        FAIR      68  66  94 W8        30.04R
SHEYENNE NWR     N/A     65  64  97 W2        29.95S
ROLLA          FAIR      54  50  87 N13       30.17R
 ***** THE ABOVE OBSERVATIONS ARE NON NWS ARE NOT QUALITY
       CONTROLLED AND MAY MIS-REPORT RAIN FOR SNOW...
$$

  *****  WEATHER ACROSS NORTHERN MINNESOTA  *****

CITY           SKY/WX    TMP DP  RH WIND       PRES   REMARKS
FLAG ISLAND    CLOUDY    66  63  88 SE7       30.05F
WARROAD        NOT AVBL
ROSEAU         CLOUDY    64  59  82 SE6       30.06S
HALLOCK        CLOUDY    66  64  94 CALM      30.06R
THF RVR FALLS  CLOUDY    68  64  87 NE10      30.09R
BAUDETTE       CLOUDY    64  62  93 S6        30.08R
WASKISH        CLOUDY    64  63  94 S3        30.08S
CROOKSTON      LGT RAIN  68  64  88 W6        30.08R
GREENBUSH NDAW   N/A     64  64 100 S2          N/A
$$
  *****  WEATHER ACROSS CENTRAL AND WEST MINNESOTA  *****

CITY           SKY/WX    TMP DP  RH WIND       PRES   REMARKS
FOSSTON        CLOUDY    64  63  94 SE8       30.06F
BEMIDJI        CLOUDY    63  61  94 S7        30.09S
PARK RAPIDS    CLOUDY    66  61  84 SE12      30.10F
ELBOW LAKE     CLOUDY    69  66  90 E10       30.10R
WADENA         CLOUDY    64  63  94 E12G18    30.16R
DETROIT LAKES  CLOUDY    68  63  83 SE14G21   30.12R
MOORHEAD       CLEAR     68  64  88 SE7       30.04R
FERGUS FALLS   CLOUDY    70  68  94 SE10      30.08R
MORRIS MN      CLOUDY    70  68  94 E9G22     30.08R
STAPLES        TSTM      63  63 100 E6        30.17R
$$
  *****  WEATHER ELSEWHERE ACROSS MINNESOTA  *****

CITY           SKY/WX    TMP DP  RH WIND       PRES   REMARKS
DULUTH         LGT RAIN  63  61  93 NW5       30.22R
INTRNTL FALLS  CLOUDY    63  61  93 SE3       30.10R
ELY            LGT RAIN  61  61 100 S10G21    30.10F
CLOQUET        LGT RAIN  63  61  94 NE3       30.19F
WHEATON        NOT AVBL
BRAINERD       LGT RAIN  64  63  96 N5        30.21R FOG
HIBBING        LGT RAIN  60  60 100 SE13      30.11F
ALEXANDRIA     TSTM      66  64  93 S8G20     30.19R VSB 3/4
SAINT CLOUD    CLOUDY    70  69  97 E6        30.16S
MINNEAPOLIS    PTCLDY    70  68  93 SE3       30.15R
$$

  *****  WEATHER ACROSS SOUTH DAKOTA  *****

CITY           SKY/WX    TMP DP  RH WIND       PRES   REMARKS
SIOUX FALLS    PTCLDY    69  67  93 S3        30.12F
BROOKINGS        N/A    N/A N/A N/A MISG        N/A
WATERTOWN      CLEAR     70  67  90 S12       30.09S
HURON          CLEAR     68  67  96 S9        30.06R
SISSETON         N/A     77  68  73 W9        30.03R
ABERDEEN       CLEAR     67  65  93 W5        30.05F
MITCHELL       CLEAR     69  67  93 S5        30.09S
PIERRE         CLEAR     68  58  70 W7        30.04R
MOBRIDGE       CLEAR     65  56  72 N9        30.05S
RAPID CITY     CLEAR     64  48  56 N20       30.14R
$$

  *****  SOME WEATHER IN NEARBY STATES *****

CITY           SKY/WX    TMP DP  RH WIND       PRES   REMARKS
GLASGOW MT     MOCLDY    53  44  71 VRB7      30.26R
GREAT FALLS MT CLEAR     47  42  83 CALM      30.23S
CHEYENNE WY    CLOUDY    54  43  66 W6        30.29S
SCOTTSBLUFF NE CLEAR     55  51  86 NE3       30.19R
OMAHA NE       CLOUDY    71  66  84 SE5       30.14S
DES MOINES IA  CLOUDY    73  71  93 E8        30.16R
DAVENPORT IA   CLEAR     68  67  96 E6        30.20R FOG
CHICAGO IL     PTCLDY    70  68  93 N6        30.21S
EAU CLAIRE WI  CLEAR     66  65  96 SE3       30.18F
LA CROSSE WI   CLEAR     67  66  97 E3        30.20R
$$

  *****  SOME NATIONAL WEATHER *****

CITY           SKY/WX    TMP DP  RH WIND       PRES   REMARKS
LA GUARDIA NY  MOCLDY    77  64  64 SW7       30.11R
RALEIGH NC     CLOUDY    70  68  93 NE5       30.14R
ATLANTA GA     PTCLDY    74  68  81 E9        30.13R
NEW ORLEANS LA MOCLDY    82  76  81 NE8       29.95R
OKLAHOMA CITY  PTCLDY    72  67  84 CALM      30.10R
ALBUQUERQUE NM CLOUDY    62  43  49 N7        30.25R
SALT LAKE CITY CLEAR     65  38  36 SE9       30.18S
LOS ANGELES CA CLEAR     67  60  78 N3        29.96F
BOISE ID       PTCLDY    71  40  32 E10       30.06S
SEATTLE WA     MOCLDY    56  52  86 CALM      30.07S
$$

*** WEATHER ACROSS MANITOBA...SASKATCHEWAN AND ONTARIO ***
                ***ONTARIO***

CITY           SKY/WX    TMP DP  RH WIND       PRES   REMARKS
GERALDTON      CLOUDY    54  54 100 SE5       30.21S
THUNDER BAY    LGT RAIN  63  63 100 E6        30.14F
SIOUX LOOKOUT  NOT AVBL
TORONTO        PTCLDY    66  59  77 NW8       30.23R
BIG TROUT LK   CLOUDY    61  55  82 S13G18    30.02F
PICKLE LAKE    MOCLDY    55  54  94 SE8       30.09
DRYDEN         RAIN      63  61  94 SE16      30.06F FOG
KENORA         MOCLDY    61  61 100 S9        30.06F
$$
                *** MANITOBA***

CITY           SKY/WX    TMP DP  RH WIND       PRES   REMARKS
BRANDON        PTCLDY    50  48  93 W8        30.15R
DAUPHIN        CLOUDY    52  48  87 W8        30.14R
ISLAND LAKE    CLOUDY    64  63  94 W3        29.93R
PILOT MOUND    NOT AVBL
THE PAS        PTCLDY    52  45  76 W13       30.02S
THOMPSON       PTCLDY    52  46  82 SW8       29.89R
WINNIPEG       MOCLDY    61  59  94 N6        30.09R
LYNN LAKE      CLOUDY    50  48  93 MISG      29.80S FOG
CHURCHILL      LGT RAIN  50  48  93 SE10      29.88F
GILLAM         CLOUDY    61  61 100 S6        29.83S
$$
                ***SASKATCHEWAN***

CITY           SKY/WX    TMP DP  RH WIND       PRES   REMARKS
ESTEVAN        CLEAR     45  43  93 W7        30.25R
KINDERSLEY     PTCLDY    41  41 100 CALM      30.26F
LLOYDMINSTER   CLEAR     37  36  93 W7        30.24S
PRINCE ALBERT  CLEAR     45  41  87 W8        30.19R
REGINA         PTCLDY    36  36 100 SW2       30.27R
YORKTON        MOCLDY    50  46  87 NW9       30.19R
N. BATTLEFORD  NOT AVBL
LA RONGE       PTCLDY    46  41  81 W15G22    30.07R
SASKATOON      CLEAR     37  37 100 W6        30.27R
SWIFT CURRENT  MOCLDY    41  41 100 SW5       30.28R
$$
NOTE: THESE ARE AUTOMATED STATIONS WITH LIMITED QUALITY CONTROL
      "FAIR" INDICATES FEW OR NO CLOUDS BELOW 12,000 FEET WITH NO
      SIGNIFICANT WEATHER AND/OR OBSTRUCTIONS TO VISIBILITY.
      SKY/WX - SKY CONDITION AND SIGNIFICANT WEATHER.
      TMP - AIR TEMPERATURE.    DP   - DEWPOINT TEMPERATURE.
      RH  - RELATIVE HUMIDITY.  PRES - PRESSURE.
      HX  - HEAT INDEX.         WCI  - WIND CHILL INDEX.
$




USA.gov is the U.S. government's official web portal to all federal, state and local government web resources and services.